Weather History for Mattoon, IL

Change the Weather History Date:

Saturday, September 7, 2013

  Actual Average Record
Temperature  
Mean Temperature 77 °F 70 °F  
Max Temperature 87 °F 82 °F 97 °F (1960)
Min Temperature 67 °F 59 °F 43 °F (1956)
Degree Days  
Heating Degree Days 0 1  
Month to date heating degree days 0 1  
Since 1 July heating degree days 10 6  
Cooling Degree Days 12 6  
Month to date cooling degree days 53 45  
Year to date cooling degree days 857 965  
Growing Degree Days 26 (Base 50)    
Moisture  
Dew Point 65 °F    
Average Humidity 68    
Maximum Humidity 93    
Minimum Humidity 43    
Precipitation  
Precipitation T in 0.12 in 2.60 in (2012)
Month to date precipitation T 0.84  
Year to date precipitation 38.25 26.74  
Sea Level Pressure  
Sea Level Pressure 30.00 in    
Wind  
Wind Speed 6 mph (SSW)    
Max Wind Speed 13 mph    
Max Gust Speed 17 mph    
Visibility 10 miles    
Events      
T = Trace of Precipitation, MM = Missing Value Source: NWS Daily Summary

Daily Weather History Graph

Daily Weather History Graph

Search for Another Location

Airport:

Trip Planner

Search our weather history database for the weather conditions in past years. The results will help you decide how hot, cold, wet, or windy it might be!

Date:

Astronomy

Sep. 07, 2013 Rise Set
Actual Time 6:27 AM CDT 7:14 PM CDT
Civil Twilight 5:59 AM CDT 7:41 PM CDT
Nautical Twilight 5:27 AM CDT 8:13 PM CDT
Astronomical Twilight 4:54 AM CDT 8:46 PM CDT
Moon 8:40 AM CDT (9/7) 8:13 PM CDT (9/7)
Length of Visible Light 13h 41m
Length of Day
12h 46m
Waxing Crescent, 5% of the Moon is Illuminated
Sep 7
Waxing Crescent
Sep 12
First Quarter
Sep 19
Full
Sep 26
Last Quarter
Oct 4
New

Hourly Weather History & Observations

Time (CDT) Temp. Heat Index Dew Point Humidity Pressure Visibility Wind Dir Wind Speed Gust Speed Precip Events Conditions
12:53 AM 71.1 °F - 66.0 °F 84% 30.05 in 10.0 mi SSW 4.6 mph - N/A   Clear
1:53 AM 69.1 °F - 66.0 °F 90% 30.04 in 10.0 mi South 3.5 mph - N/A   Clear
2:53 AM 68.0 °F - 64.9 °F 90% 30.04 in 9.0 mi South 3.5 mph - N/A   Clear
3:53 AM 68.0 °F - 64.9 °F 90% 30.04 in 9.0 mi South 4.6 mph - N/A   Clear
4:53 AM 66.9 °F - 64.9 °F 93% 30.04 in 7.0 mi SSW 5.8 mph - N/A   Clear
5:53 AM 68.0 °F - 64.0 °F 87% 30.04 in 8.0 mi SW 5.8 mph - N/A   Clear
6:53 AM 68.0 °F - 64.0 °F 87% 30.05 in 7.0 mi SSW 5.8 mph - N/A   Clear
7:53 AM 69.1 °F - 64.9 °F 87% 30.05 in 7.0 mi SSW 5.8 mph - N/A   Clear
8:53 AM 73.0 °F - 66.0 °F 79% 30.05 in 10.0 mi SW 5.8 mph - N/A   Clear
9:53 AM 78.1 °F - 66.0 °F 66% 30.06 in 10.0 mi WSW 6.9 mph - N/A   Clear
10:53 AM 81.0 °F 82.7 °F 64.9 °F 58% 30.06 in 10.0 mi WSW 8.1 mph - N/A   Clear
11:53 AM 82.9 °F 84.6 °F 64.9 °F 54% 30.03 in 10.0 mi SW 8.1 mph - N/A   Clear
12:53 PM 82.9 °F 84.6 °F 64.9 °F 54% 30.00 in 10.0 mi SSW 8.1 mph - N/A   Clear
1:53 PM 84.9 °F 86.1 °F 64.0 °F 49% 29.97 in 10.0 mi SSW 12.7 mph 17.3 mph N/A   Clear
2:53 PM 86.0 °F 86.8 °F 63.0 °F 46% 29.96 in 10.0 mi SSW 8.1 mph 17.3 mph N/A   Clear
3:53 PM 87.1 °F 87.8 °F 63.0 °F 44% 29.94 in 10.0 mi SW 9.2 mph - N/A   Clear
4:53 PM 84.0 °F 85.8 °F 64.9 °F 53% 29.94 in 10.0 mi SW 3.5 mph - N/A   Clear
5:53 PM 82.0 °F 84.5 °F 66.9 °F 60% 29.94 in 10.0 mi Calm Calm - N/A   Clear
6:53 PM 80.1 °F 82.7 °F 68.0 °F 67% 29.94 in 10.0 mi SSW 3.5 mph - N/A   Clear
7:53 PM 79.0 °F - 66.9 °F 66% 29.94 in 10.0 mi SSW 3.5 mph - N/A   Clear
8:53 PM 77.0 °F - 66.0 °F 69% 29.94 in 10.0 mi SW 4.6 mph - 0.00 in   Clear
9:53 PM 75.9 °F - 66.9 °F 74% 29.94 in 10.0 mi South 4.6 mph - N/A   Clear
10:53 PM 75.0 °F - 66.0 °F 73% 29.93 in 10.0 mi South 6.9 mph - N/A   Clear
11:53 PM 75.0 °F - 66.0 °F 73% 29.93 in 10.0 mi South 6.9 mph - N/A   Clear